Location: Dana
(41.8364°N, 106.7042°W)
Time: 12:05:51
(UTC+00:00)

Tiros 1 despin weight - Pass Details

Date: 13 May 2026
Orbit: 554 x 591 km, 48.2° (Epoch: 10 June)

Event Time Altitude Azimuth Distance (km) Brightness Sun altitude
Rises 18:39:26 0° 295° (WNW) 2,730 ? 66.1°
Reaches altitude 10° 18:41:43 10° 291° (WNW) 1,833 ? 66.2°
Maximum altitude 18:45:47 54° 214° (SW) 677 ? 66.4°
Drops below altitude 10° 18:49:52 10° 137° (SE) 1,832 ? 66.5°
Sets 18:52:09 0° 133° (SE) 2,728 ? 66.6°
